{"data":{"norad_id":45026,"epoch":"2026-09-20T03:37:48.337824Z","epoch_age_seconds":52143,"freshness":"FRESH","line1":"1 45026U 20005A   26263.15125391 -.00000169  00000+0  00000+0 0  9995","line2":"2 45026   0.0269 103.7622 0001976  31.5002   1.2502  1.00272717 24464","mean_motion":1.00272717,"eccentricity":0.0001976,"inclination_deg":0.0269,"raan_deg":103.7622,"arg_perigee_deg":31.5002,"mean_anomaly_deg":1.2502,"bstar":0,"rev_number":2446,"period_min":1436.0835560086,"perigee_km":35778.001990373,"apogee_km":35794.66538919,"semimajor_km":42164.470689782,"source":"CELESTRAK","updated_at":"2026-09-20T09:00:35.292221Z"}}